When you browse on this site, cookies collect data to enhance your experience and personalize the content and advertising you see.
Visit our Privacy Policy to learn more. By continuing to use the site, you agree to this use of cookies and data.
  • In United Kingdom
  • List of Countries
  • For 7 days
  • Water Temperature
  • Satellite Maps
  • Weather Map
  • Weather Widgets
  • user-avatar
    Login

    Hourly Weather Medellín

    Today, 20 June, Thursday

    Time Temperature Precipitation Wind Pressure Humidity
    00:00 +13°C° 0 mm 0 mps 585 mmHg 90%
    01:00 +13°C° 0 mm 0 mps 585 mmHg 89%
    02:00 +13°C° 0 mm 0 mps 585 mmHg 90%
    03:00 +13°C° 0 mm 0 mps 584 mmHg 90%
    04:00 +13°C° 0 mm 0 mps 584 mmHg 91%
    05:00 +13°C° 0 mm 0 mps 585 mmHg 88%
    06:00 +14°C° 0 mm 0 mps 585 mmHg 85%
    07:00 +14°C° 0 mm 0 mps 586 mmHg 83%
    08:00 +19°C° 0 mm 1 mps 587 mmHg 71%
    09:00 +22°C° 0 mm 1 mps 588 mmHg 60%
    10:00 +24°C° 0 mm 2 mps 590 mmHg 49%
    11:00 +24°C° 0.3 mm 2 mps 589 mmHg 50%
    12:00 +25°C° 0.3 mm 2 mps 589 mmHg 52%
    13:00 +25°C° 0.3 mm 2 mps 588 mmHg 53%
    14:00 +24°C° 0.3 mm 2 mps 588 mmHg 56%
    15:00 +24°C° 0.3 mm 2 mps 587 mmHg 58%
    16:00 +23°C° 0.3 mm 2 mps 587 mmHg 61%
    17:00 +21°C° 0.2 mm 1 mps 586 mmHg 70%
    18:00 +19°C° 0.2 mm 1 mps 585 mmHg 79%
    19:00 +16°C° 0.2 mm 1 mps 585 mmHg 88%
    20:00 +15°C° 0 mm 1 mps 585 mmHg 88%
    21:00 +15°C° 0 mm 1 mps 585 mmHg 89%
    22:00 +14°C° 0 mm 1 mps 585 mmHg 90%
    23:00 +14°C° 0 mm 1 mps 585 mmHg 90%

    Tomorrow, 21 June, Friday

    Time Temperature Precipitation Wind Pressure Humidity
    00:00 +13°C° 0 mm 1 mps 585 mmHg 90%
    01:00 +12°C° 0 mm 0 mps 584 mmHg 91%
    02:00 +12°C° 0 mm 0 mps 584 mmHg 91%
    03:00 +12°C° 0 mm 0 mps 584 mmHg 90%
    04:00 +12°C° 0 mm 0 mps 584 mmHg 90%
    05:00 +13°C° 0 mm 0 mps 584 mmHg 88%
    06:00 +13°C° 0 mm 0 mps 585 mmHg 87%
    07:00 +14°C° 0 mm 0 mps 586 mmHg 85%
    08:00 +18°C° 0 mm 1 mps 587 mmHg 73%
    09:00 +21°C° 0 mm 1 mps 588 mmHg 61%
    10:00 +23°C° 0 mm 2 mps 589 mmHg 49%
    11:00 +24°C° 0 mm 2 mps 589 mmHg 45%
    12:00 +25°C° 0 mm 2 mps 589 mmHg 42%
    13:00 +26°C° 0 mm 2 mps 589 mmHg 38%
    14:00 +26°C° 0 mm 2 mps 589 mmHg 39%
    15:00 +25°C° 0 mm 2 mps 588 mmHg 41%
    16:00 +25°C° 0 mm 2 mps 588 mmHg 42%
    17:00 +21°C° 0.1 mm 2 mps 587 mmHg 55%
    18:00 +19°C° 0.1 mm 1 mps 586 mmHg 67%
    19:00 +16°C° 0.1 mm 1 mps 586 mmHg 80%
    20:00 +15°C° 0 mm 1 mps 586 mmHg 82%
    21:00 +15°C° 0 mm 1 mps 586 mmHg 85%
    22:00 +14°C° 0 mm 1 mps 586 mmHg 87%
    23:00 +14°C° 0 mm 1 mps 586 mmHg 87%

    Day after tomorrow, 22 June, Saturday

    Time Temperature Precipitation Wind Pressure Humidity
    00:00 +14°C° 0 mm 1 mps 586 mmHg 87%
    01:00 +13°C° 0 mm 1 mps 585 mmHg 87%
    02:00 +13°C° 0 mm 1 mps 585 mmHg 86%
    03:00 +13°C° 0 mm 1 mps 585 mmHg 86%
    04:00 +13°C° 0 mm 1 mps 584 mmHg 85%
    05:00 +13°C° 0 mm 0 mps 585 mmHg 83%
    06:00 +13°C° 0 mm 0 mps 586 mmHg 80%
    07:00 +14°C° 0 mm 0 mps 586 mmHg 78%
    08:00 +18°C° 0 mm 1 mps 587 mmHg 67%
    09:00 +21°C° 0 mm 1 mps 589 mmHg 57%
    10:00 +23°C° 0 mm 2 mps 590 mmHg 46%
    11:00 +24°C° 0 mm 2 mps 590 mmHg 43%
    12:00 +25°C° 0 mm 2 mps 589 mmHg 39%
    13:00 +26°C° 0 mm 2 mps 589 mmHg 36%
    14:00 +26°C° 0 mm 2 mps 589 mmHg 37%
    15:00 +25°C° 0 mm 2 mps 588 mmHg 39%
    16:00 +25°C° 0 mm 2 mps 587 mmHg 40%
    17:00 +21°C° 0 mm 2 mps 587 mmHg 52%
    18:00 +20°C° 0 mm 1 mps 586 mmHg 64%
    19:00 +16°C° 0 mm 1 mps 586 mmHg 75%
    20:00 +16°C° 0 mm 1 mps 586 mmHg 79%
    21:00 +15°C° 0 mm 1 mps 586 mmHg 83%
    22:00 +14°C° 0 mm 1 mps 586 mmHg 87%
    23:00 +14°C° 0 mm 1 mps 586 mmHg 88%

    23 June, Sunday

    Time Temperature Precipitation Wind Pressure Humidity
    00:00 +14°C° 0 mm 1 mps 586 mmHg 88%
    01:00 +13°C° 0 mm 0 mps 585 mmHg 89%
    02:00 +12°C° 0 mm 0 mps 585 mmHg 88%
    03:00 +12°C° 0 mm 0 mps 585 mmHg 88%
    04:00 +12°C° 0 mm 0 mps 584 mmHg 88%
    05:00 +13°C° 0 mm 0 mps 585 mmHg 84%
    06:00 +13°C° 0 mm 0 mps 585 mmHg 79%
    07:00 +14°C° 0 mm 0 mps 586 mmHg 75%
    08:00 +19°C° 0 mm 1 mps 587 mmHg 66%
    09:00 +21°C° 0 mm 1 mps 588 mmHg 56%
    10:00 +23°C° 0 mm 2 mps 589 mmHg 46%
    11:00 +24°C° 0 mm 2 mps 589 mmHg 44%
    12:00 +25°C° 0 mm 2 mps 589 mmHg 41%
    13:00 +26°C° 0 mm 2 mps 589 mmHg 38%
    14:00 +25°C° 0 mm 2 mps 588 mmHg 41%
    15:00 +25°C° 0 mm 2 mps 588 mmHg 44%
    16:00 +24°C° 0 mm 1 mps 587 mmHg 47%
    17:00 +22°C° 0.1 mm 1 mps 586 mmHg 58%
    18:00 +19°C° 0.1 mm 1 mps 586 mmHg 69%
    19:00 +16°C° 0.1 mm 1 mps 585 mmHg 80%
    20:00 +16°C° 0.1 mm 1 mps 585 mmHg 82%
    21:00 +15°C° 0.1 mm 1 mps 586 mmHg 85%
    22:00 +15°C° 0.1 mm 1 mps 586 mmHg 87%
    23:00 +14°C° 0 mm 1 mps 585 mmHg 88%

    24 June, Monday

    Time Temperature Precipitation Wind Pressure Humidity
    00:00 +13°C° 0 mm 0 mps 585 mmHg 90%
    01:00 +12°C° 0 mm 0 mps 585 mmHg 91%
    02:00 +12°C° 0 mm 0 mps 584 mmHg 91%
    03:00 +12°C° 0 mm 0 mps 584 mmHg 91%
    04:00 +12°C° 0 mm 0 mps 584 mmHg 91%
    05:00 +12°C° 0 mm 0 mps 584 mmHg 89%
    06:00 +13°C° 0 mm 0 mps 585 mmHg 88%
    07:00 +14°C° 0 mm 0 mps 585 mmHg 86%
    08:00 +18°C° 0 mm 1 mps 586 mmHg 76%
    09:00 +20°C° 0 mm 1 mps 587 mmHg 67%
    10:00 +22°C° 0 mm 1 mps 588 mmHg 57%
    11:00 +23°C° 0.1 mm 1 mps 588 mmHg 55%
    12:00 +23°C° 0.1 mm 1 mps 588 mmHg 53%
    13:00 +24°C° 0.1 mm 1 mps 588 mmHg 51%
    14:00 +23°C° 0.5 mm 1 mps 587 mmHg 61%
    15:00 +22°C° 0.5 mm 1 mps 586 mmHg 72%
    16:00 +20°C° 0.5 mm 1 mps 585 mmHg 82%
    17:00 +17°C° 0.7 mm 0 mps 585 mmHg 86%
    18:00 +16°C° 0.7 mm 0 mps 585 mmHg 90%
    19:00 +14°C° 0.7 mm 0 mps 585 mmHg 93%
    20:00 +14°C° 0 mm 0 mps 585 mmHg 94%
    21:00 +13°C° 0 mm 0 mps 585 mmHg 94%
    22:00 +13°C° 0 mm 0 mps 586 mmHg 94%
    23:00 +13°C° 0 mm 0 mps 585 mmHg 94%

    25 June, Tuesday

    Time Temperature Precipitation Wind Pressure Humidity
    00:00 +13°C° 0 mm 0 mps 585 mmHg 95%
    01:00 +13°C° 0 mm 0 mps 585 mmHg 95%
    02:00 +12°C° 0 mm 0 mps 585 mmHg 95%
    03:00 +12°C° 0 mm 0 mps 585 mmHg 95%
    04:00 +12°C° 0 mm 0 mps 584 mmHg 96%
    05:00 +12°C° 0 mm 0 mps 585 mmHg 95%
    06:00 +13°C° 0 mm 0 mps 585 mmHg 94%
    07:00 +13°C° 0 mm 0 mps 586 mmHg 94%
    08:00 +16°C° 0 mm 0 mps 587 mmHg 82%
    09:00 +18°C° 0 mm 0 mps 588 mmHg 71%
    10:00 +22°C° 0 mm 1 mps 589 mmHg 60%
    11:00 +23°C° 0.3 mm 1 mps 589 mmHg 58%
    12:00 +24°C° 0.3 mm 1 mps 589 mmHg 56%
    13:00 +25°C° 0.3 mm 1 mps 589 mmHg 54%
    14:00 +23°C° 0.9 mm 1 mps 588 mmHg 63%
    15:00 +22°C° 0.9 mm 1 mps 587 mmHg 71%
    16:00 +21°C° 0.9 mm 1 mps 586 mmHg 80%
    17:00 +19°C° 0.7 mm 1 mps 586 mmHg 85%
    18:00 +18°C° 0.7 mm 1 mps 585 mmHg 90%
    19:00 +15°C° 0.7 mm 1 mps 585 mmHg 95%
    20:00 +15°C° 0.2 mm 1 mps 585 mmHg 95%
    21:00 +14°C° 0.2 mm 0 mps 585 mmHg 96%
    22:00 +13°C° 0.2 mm 0 mps 586 mmHg 96%
    23:00 +13°C° 0.2 mm 0 mps 586 mmHg 96%
    Show more